Theta_e
322 323 323 324 324 325 325 325 326 328 330 331 330 330 330 331 331 332 332 333 334 333 332 332 331 330 329 328 328 327 325 319 316 313 311 317 326 333 334 331 332 333 332 321 318 317 314 315 315 319 319 320 320 317 319 320 317 316 304 302 299 301 302 307 306 307 306 302 301 305 305 305 304 307 309 310 310 310 310 310 315 319 319 322 328 330 330 330
321 322 323 324 324 325 325 325 325 326 328 330 330 329 329 330 331 331 332 332 332 332 331 331 330 329 328 328 328 326 321 319 315 313 313 324 328 330 334 336 334 330 330 318 315 315 315 313 315 318 316 314 326 317 317 317 315 308 306 304 301 305 307 311 307 308 305 304 303 303 306 305 306 307 307 304 304 306 306 308 313 313 317 318 327 327 328 328
321 322 323 323 324 325 325 325 325 325 327 329 330 329 329 329 330 331 331 331 332 332 331 330 330 328 327 329 328 326 319 315 314 310 315 327 329 329 330 331 335 333 322 318 317 316 315 317 318 317 316 313 315 313 316 313 311 309 309 304 305 311 312 306 306 305 306 306 304 303 303 304 307 308 308 305 303 305 304 304 306 309 314 318 325 326 326 327
320 321 323 323 324 324 325 325 325 325 325 327 327 328 328 328 329 330 330 331 331 332 331 330 329 328 326 328 327 323 319 314 307 314 320 328 331 330 328 331 335 332 323 321 322 318 318 320 319 317 315 312 314 316 311 313 310 311 308 306 309 312 310 309 306 307 306 306 305 304 303 302 305 307 306 306 302 303 305 308 308 309 314 319 324 325 325 325
320 321 322 323 323 324 325 325 325 325 325 326 327 327 326 327 328 329 330 330 331 331 330 330 329 328 327 328 325 322 315 307 310 317 322 329 330 333 330 330 333 331 323 321 320 319 319 317 317 315 314 309 313 313 311 314 315 316 308 311 312 311 306 310 307 306 305 305 305 305 302 304 307 307 304 304 301 300 305 309 309 311 317 320 322 324 324 324
320 320 321 322 323 324 324 325 325 325 324 325 326 326 325 325 326 328 329 330 330 330 329 329 328 328 327 326 323 318 315 297 315 318 328 330 331 333 332 331 335 327 324 319 318 317 318 316 315 311 310 310 310 308 312 314 315 306 311 312 313 313 308 310 305 306 306 306 304 304 305 305 304 304 304 303 303 305 307 307 307 313 318 322 324 325 323 323
319 320 320 321 322 323 324 324 325 324 324 324 325 325 325 325 325 326 329 330 330 329 328 329 328 328 327 324 320 315 311 314 319 326 329 330 331 331 331 331 330 324 324 317 319 318 315 315 314 311 310 310 311 311 314 313 315 311 308 312 312 313 313 306 303 304 305 305 304 305 304 303 302 299 305 303 305 307 308 307 307 313 323 323 324 325 323 323
319 319 320 321 321 322 323 323 324 324 323 323 324 325 325 325 325 326 327 329 329 329 328 329 328 327 326 320 313 308 309 311 321 327 329 329 327 328 329 327 323 321 318 317 316 316 317 314 311 315 310 309 312 312 314 313 314 309 308 312 313 313 314 306 300 302 304 304 305 304 302 302 303 303 304 303 305 306 307 308 307 307 320 321 323 324 323 323
319 319 319 320 321 321 322 323 324 324 324 323 322 324 324 324 324 324 326 327 329 328 328 328 327 327 325 318 311 305 305 319 324 327 327 324 323 324 325 320 323 318 318 317 317 319 316 313 314 315 309 310 316 312 314 311 307 312 311 312 312 311 311 305 303 303 302 305 304 302 300 302 303 305 301 303 305 306 307 308 307 307 308 319 321 323 323 323
319 319 319 320 320 321 322 322 323 324 323 323 323 324 323 323 323 324 325 327 327 328 328 328 327 326 321 314 311 302 314 322 327 326 325 323 322 322 320 320 320 319 315 317 318 316 315 316 315 319 318 315 316 312 315 312 309 314 312 312 312 312 309 309 305 305 304 303 303 300 300 301 303 302 298 304 306 307 306 306 308 307 307 310 315 318 322 322
318 318 319 318 319 321 322 323 323 323 323 323 323 323 322 322 322 321 322 325 327 328 328 327 327 324 317 316 307 303 321 321 324 325 324 322 321 318 316 318 319 318 316 315 316 321 322 317 319 321 317 311 314 313 314 314 316 314 310 311 312 313 313 311 308 306 305 303 304 303 301 302 304 301 299 303 306 307 305 306 307 307 306 308 312 312 317 320
318 318 318 319 319 320 321 323 323 323 323 323 323 323 322 321 321 321 321 323 326 327 328 328 326 324 320 314 309 310 323 323 325 326 324 321 319 318 317 318 319 319 319 314 317 320 321 322 321 314 307 318 309 315 312 319 314 311 310 305 309 312 310 311 306 306 308 306 304 304 301 300 302 301 304 304 306 305 304 304 305 306 307 307 309 310 312 317
318 318 318 318 318 318 319 320 321 323 322 322 323 322 321 321 320 321 320 320 323 327 327 327 325 322 317 307 312 325 325 325 326 325 323 321 320 320 318 318 318 320 319 318 318 321 321 320 318 316 312 313 311 306 310 313 312 312 310 305 305 307 307 310 309 310 308 309 309 306 295 299 302 306 308 308 306 306 305 304 304 304 306 307 308 309 311 315
318 318 318 317 317 318 318 319 320 322 322 322 323 322 321 320 320 320 320 320 321 321 326 327 325 320 314 308 318 325 329 326 328 323 322 322 318 317 318 319 318 318 319 319 320 321 322 322 318 313 315 308 307 313 309 310 312 304 307 307 302 301 301 310 310 311 307 311 310 307 296 301 307 310 311 311 307 306 305 306 305 305 306 307 306 307 310 314
317 317 317 317 317 318 317 318 319 320 322 322 322 320 320 320 320 320 320 319 319 321 325 327 324 316 309 311 325 329 333 329 323 322 322 320 317 315 314 317 315 317 318 320 319 321 322 320 317 314 309 308 308 307 304 304 305 305 301 298 303 300 303 309 312 311 307 310 311 304 296 300 306 310 314 314 310 307 305 306 307 307 307 307 307 307 308 313
316 317 317 317 317 316 316 318 318 319 319 320 320 320 320 320 320 319 320 318 318 318 325 320 318 317 309 305 316 329 326 318 318 324 324 321 319 314 315 315 316 315 319 318 321 319 319 320 313 313 310 310 304 303 303 300 300 303 301 300 299 301 302 305 310 312 312 310 310 303 298 303 304 310 313 315 308 306 305 306 307 308 309 309 308 307 307 310
315 316 316 317 316 316 315 315 317 318 319 319 319 319 320 320 319 319 318 316 317 315 315 313 318 318 303 314 322 315 315 320 324 323 323 325 321 318 316 315 313 313 318 317 317 316 315 312 311 312 313 307 306 304 298 295 296 298 302 299 303 300 302 300 308 312 311 310 305 304 301 303 307 310 307 311 312 305 304 305 307 308 308 309 310 308 308 309
316 316 316 316 316 316 316 315 315 317 318 319 319 318 316 319 319 317 315 316 315 313 310 311 313 311 306 312 305 310 318 318 320 321 323 324 324 319 316 313 314 313 313 311 313 309 311 306 307 302 304 303 303 301 295 290 295 296 298 298 300 303 304 303 302 307 309 309 304 301 300 301 305 308 310 304 305 304 304 305 306 307 307 308 308 308 308 309
316 315 316 316 316 315 316 315 316 316 316 318 318 318 317 317 315 315 310 310 305 300 296 298 304 297 294 306 314 317 317 320 323 321 318 320 321 320 318 317 313 309 305 304 304 307 308 304 303 300 295 298 299 300 298 301 302 300 301 300 301 299 301 302 307 308 308 305 304 300 297 299 302 304 307 309 303 303 303 304 305 305 306 307 307 307 306 308
315 315 316 316 316 316 316 317 316 317 317 314 313 312 310 303 302 301 307 304 299 299 298 300 303 302 302 311 311 320 323 323 315 318 319 321 318 315 313 313 308 309 304 299 301 303 306 297 294 294 297 299 302 303 303 304 305 304 303 300 300 301 302 306 307 304 307 303 302 303 303 301 301 302 305 307 308 304 303 303 304 304 305 306 307 308 308 306
314 314 316 316 316 316 317 317 317 315 316 313 311 306 297 297 290 287 297 299 302 303 301 299 300 299 299 305 306 312 312 313 317 315 317 322 317 311 307 308 303 300 302 303 300 306 304 296 295 299 301 302 302 304 304 304 305 302 300 299 299 301 300 305 305 300 303 300 298 301 301 301 302 304 305 306 305 305 305 303 303 304 305 305 306 307 308 308
314 315 315 316 315 316 315 316 317 317 316 314 310 304 304 304 305 309 303 292 300 303 303 301 304 301 307 305 309 306 304 309 310 313 318 318 313 306 306 305 300 297 302 303 302 299 296 294 298 301 304 305 304 304 304 304 303 302 300 300 299 301 304 307 302 302 301 300 296 299 298 299 301 304 306 306 306 306 307 306 304 303 303 304 304 305 307 307
314 315 315 315 314 314 315 316 317 315 310 307 304 305 305 308 313 313 308 299 296 304 302 301 298 298 299 308 308 307 297 301 304 310 313 316 309 307 305 302 300 301 301 301 296 294 291 295 301 304 305 303 302 303 303 302 303 302 301 299 298 303 302 297 297 300 300 299 297 299 298 300 303 305 306 307 306 307 308 308 307 306 304 303 304 305 305 306
314 315 314 314 314 314 314 314 316 311 307 307 305 306 311 311 312 312 300 289 285 294 300 302 301 300 299 299 308 305 299 298 309 307 316 314 305 309 305 303 300 301 298 300 299 296 295 300 305 304 304 303 300 301 301 300 299 302 302 301 300 301 302 301 296 299 300 299 300 297 295 296 299 299 301 305 307 307 307 307 307 307 307 307 306 305 306 306
314 314 314 314 314 315 314 315 308 306 308 307 306 310 311 311 311 310 297 294 293 289 305 302 303 301 303 311 311 302 302 303 303 313 315 313 307 306 303 307 303 298 299 301 300 298 298 302 306 303 302 303 301 299 300 300 297 299 303 303 303 303 302 303 298 298 295 295 297 296 288 293 299 300 302 305 306 305 306 306 306 307 307 307 306 305 306 307
313 313 313 314 315 314 314 306 304 307 306 302 305 310 311 312 311 308 297 283 279 288 297 287 302 294 308 299 304 302 303 294 306 311 314 315 315 308 306 303 305 297 300 300 298 299 300 304 304 302 301 301 301 299 301 302 298 297 299 305 304 304 303 303 299 300 291 289 297 299 290 289 297 298 301 304 304 305 306 305 306 307 307 308 308 307 306 307
312 312 313 314 314 313 305 299 308 308 300 302 311 311 310 311 314 308 292 280 277 289 284 296 296 295 304 302 302 302 286 293 306 308 311 315 309 314 302 300 303 305 304 303 299 294 302 302 303 303 301 300 299 297 301 302 298 296 305 305 304 303 303 303 302 298 295 301 297 297 296 288 289 296 300 301 300 304 304 304 305 306 307 307 308 308 308 308
312 312 313 313 312 312 307 306 305 302 301 307 312 311 311 310 309 307 290 273 272 294 287 291 296 309 305 304 303 296 294 305 297 303 312 314 313 307 305 300 299 300 302 301 288 300 302 299 301 300 300 299 298 301 303 304 300 300 305 306 303 303 303 302 299 296 296 291 290 291 295 287 289 295 301 302 299 298 299 302 304 305 306 307 307 308 308 309
311 311 311 312 313 313 312 307 304 301 306 311 312 310 311 309 305 294 280 272 290 286 307 290 312 302 302 303 298 299 297 300 293 306 311 314 314 308 300 302 303 302 303 301 295 299 302 303 302 303 300 297 302 303 304 304 299 304 307 307 305 304 303 302 296 295 293 288 288 291 295 289 291 296 297 299 299 299 300 302 303 304 306 306 307 308 309 309
311 311 311 312 311 308 307 310 306 310 312 312 310 310 309 304 295 283 278 268 296 279 295 296 296 291 298 292 291 297 293 296 299 303 308 305 308 308 308 310 304 301 299 302 300 300 303 306 307 304 300 303 303 304 305 304 305 306 305 301 300 299 295 292 293 291 288 286 289 295 296 293 288 295 297 296 298 301 301 303 305 306 307 308 308 308 309 309
311 312 311 312 305 306 307 301 306 310 311 312 310 307 304 296 284 277 271 278 292 287 298 295 288 299 291 288 285 293 294 295 296 298 297 306 303 304 305 302 306 300 296 296 296 300 301 302 302 304 307 306 306 302 305 306 306 303 299 296 294 290 291 289 287 289 287 286 291 296 296 297 287 291 298 302 303 303 304 302 304 305 306 307 308 309 309 309
310 311 311 308 308 311 301 299 307 310 310 311 307 300 294 279 284 275 274 297 279 286 288 288 293 293 290 292 290 289 288 293 295 296 291 295 297 296 298 293 297 288 287 290 289 298 296 298 302 303 306 305 302 300 301 304 303 301 298 295 290 284 287 283 285 283 284 285 286 292 296 292 291 296 299 301 300 303 303 304 303 303 303 304 306 306 307 307
310 308 308 309 307 306 307 309 311 311 308 308 302 296 286 278 272 279 281 281 278 292 287 295 291 292 290 290 286 289 294 288 295 294 295 293 292 297 301 300 300 296 286 292 291 291 292 299 300 300 303 305 304 296 294 294 299 298 295 292 289 284 282 281 283 285 286 288 288 290 294 289 294 296 301 301 304 304 302 301 302 302 302 303 303 304 305 305
308 306 305 308 308 309 308 310 310 309 305 303 296 290 283 276 274 287 280 282 282 294 295 292 292 292 291 285 287 290 286 292 293 292 294 290 289 288 297 300 301 298 295 293 289 289 285 286 293 298 294 304 303 301 300 297 298 297 299 296 291 289 284 281 284 281 284 286 286 291 288 286 287 290 297 302 304 306 306 306 306 305 303 303 302 303 303 303
308 307 306 306 307 308 308 310 308 306 304 298 291 284 275 274 280 278 279 282 283 290 291 295 290 289 286 290 291 291 292 286 293 292 290 288 286 288 292 296 300 300 298 290 291 291 289 290 297 303 301 304 300 304 304 300 297 299 299 299 293 290 294 285 286 287 287 285 284 286 287 289 292 297 297 297 297 297 303 304 305 305 304 301 301 302 302 302
305 303 306 302 303 306 308 308 306 302 300 294 285 279 276 280 275 284 281 292 289 287 290 292 291 286 286 285 291 289 295 290 291 290 288 289 290 288 292 298 298 301 296 291 294 288 290 288 298 301 303 302 302 304 302 303 289 296 298 290 294 298 296 289 286 286 285 284 283 287 287 291 296 297 299 298 298 297 296 300 302 303 303 302 301 302 301 302
301 302 298 300 302 306 307 308 307 302 298 291 283 277 282 285 288 288 291 288 291 292 290 283 284 285 284 283 285 287 290 292 290 289 285 291 287 291 289 292 302 302 301 298 293 297 289 289 298 297 295 301 305 305 303 303 301 298 291 295 298 300 299 292 285 284 281 279 281 286 285 286 285 284 295 297 297 297 296 297 300 301 301 300 301 301 301 301
299 299 299 299 302 306 307 307 305 299 294 287 280 283 288 284 291 290 294 291 294 294 287 286 288 291 285 285 284 286 290 286 286 288 285 290 285 296 292 292 299 302 303 304 296 295 297 286 289 295 297 300 303 302 299 302 301 298 295 302 294 286 286 288 288 282 280 279 280 283 285 285 287 288 291 291 294 296 298 298 297 298 299 300 299 299 300 301
298 296 290 297 304 306 306 306 302 296 289 282 281 281 287 288 294 291 295 294 295 292 286 288 284 289 290 286 287 289 289 284 288 284 285 287 285 295 293 296 295 303 304 303 297 297 298 288 288 295 296 298 299 298 287 294 299 297 299 297 299 293 289 288 288 287 287 280 280 281 284 283 291 292 294 294 295 297 298 298 298 299 300 300 299 300 301 301
294 290 288 300 303 305 305 303 296 292 286 279 282 283 289 286 290 293 293 293 289 289 287 288 291 287 290 289 290 284 289 289 287 286 287 290 287 297 295 299 297 300 304 303 299 301 294 296 285 290 294 298 289 294 291 294 290 290 293 292 294 291 294 294 292 289 283 281 282 280 280 284 291 296 296 297 298 298 299 299 300 300 301 301 301 301 301 302
296 289 289 301 303 304 302 297 289 284 282 285 287 285 287 287 290 291 294 296 293 295 291 288 290 286 288 289 286 291 287 288 288 285 286 286 288 285 296 298 300 298 303 301 299 298 291 290 287 288 287 288 292 298 297 297 297 294 293 292 294 291 288 286 284 292 289 284 280 281 280 287 294 298 299 299 300 300 300 300 300 301 301 300 301 300 303 303
289 282 287 300 302 302 295 285 285 288 285 282 282 286 285 292 289 290 291 293 294 291 295 292 292 290 287 287 290 288 287 287 287 287 288 286 291 291 297 301 301 302 299 294 296 301 298 291 289 286 287 289 294 298 296 299 299 297 296 293 297 295 292 288 283 286 288 289 287 286 282 286 295 296 298 299 300 300 299 299 299 300 299 299 300 300 301 301
287 285 297 300 302 299 290 284 286 284 283 286 290 288 290 289 289 292 289 291 289 293 290 289 288 289 290 289 286 284 290 284 287 285 288 289 291 294 298 301 302 300 301 294 299 298 296 288 285 286 289 290 292 294 296 295 298 295 296 295 296 292 293 291 290 290 287 287 286 285 284 287 295 295 295 292 292 295 297 297 298 299 298 298 297 298 298 300
288 288 291 299 301 298 287 278 279 281 283 286 286 286 290 289 289 288 288 290 288 289 288 288 290 293 289 292 290 285 289 283 289 287 287 291 289 298 298 299 302 297 298 296 294 298 292 287 288 283 281 283 285 289 289 289 291 292 292 294 296 297 296 294 292 289 287 288 288 286 280 287 295 296 295 294 295 296 297 296 295 296 297 298 297 298 297 297
289 291 291 292 296 294 283 285 283 281 282 282 283 283 285 286 290 289 289 288 291 288 288 286 290 291 289 292 290 291 292 288 284 291 292 291 291 297 297 298 300 298 300 300 298 300 293 288 287 281 277 276 275 277 280 284 286 290 293 293 295 295 294 291 287 288 285 288 288 286 286 292 293 294 295 295 294 295 295 294 295 295 296 297 298 298 298 297
284 278 286 285 288 289 289 290 287 284 282 282 281 283 285 283 287 289 290 288 291 290 288 290 290 290 288 290 286 285 286 290 286 284 288 287 290 292 297 298 298 297 297 298 298 298 286 287 287 286 285 284 286 287 292 294 290 287 290 292 293 295 296 295 292 289 286 288 288 289 290 291 292 293 292 292 290 292 293 293 293 294 294 295 295 296 296 297
287 281 281 279 285 285 285 287 285 285 282 285 279 282 280 282 285 286 290 285 289 288 289 288 288 285 285 286 286 286 287 287 289 288 287 288 290 292 296 296 299 298 296 296 298 295 286 285 286 286 286 288 291 291 293 294 290 290 291 291 293 293 294 292 289 287 293 289 284 291 293 290 292 295 296 296 295 293 294 294 294 293 295 296 297 297 297 295
279 282 286 288 282 279 280 281 285 284 286 285 282 285 281 281 282 281 287 288 289 289 285 286 287 287 287 285 286 282 285 284 285 283 288 288 289 291 290 294 294 296 296 295 297 294 286 285 287 287 287 289 290 291 294 293 293 292 292 293 292 293 293 290 291 293 293 288 286 292 293 291 293 296 297 298 298 297 293 295 295 296 296 296 295 294 293 294
286 287 286 290 282 284 284 284 285 284 284 284 283 283 281 281 281 283 285 284 285 284 287 279 283 285 286 287 286 282 285 281 281 286 285 284 286 286 284 289 293 296 296 293 294 291 288 285 286 286 286 287 288 289 292 292 292 293 292 293 293 293 293 293 293 294 294 292 294 294 293 293 295 297 298 298 298 298 297 294 294 293 294 293 293 294 294 296
282 282 281 287 287 285 285 285 285 284 281 285 280 282 282 282 281 284 285 285 281 283 287 283 284 286 286 286 286 283 285 285 285 283 288 288 285 287 286 287 287 291 294 291 291 291 289 285 288 285 285 286 287 288 289 291 291 290 292 293 293 293 293 294 294 295 294 293 294 294 292 292 297 300 299 300 299 297 294 292 293 293 293 293 293 294 294 295
290 291 290 284 280 283 285 285 283 282 280 282 280 283 283 283 282 285 284 287 285 283 285 283 285 285 287 286 285 285 288 288 288 288 290 290 285 290 287 286 292 286 290 288 287 287 289 285 286 285 283 284 286 286 286 287 288 289 290 291 292 292 290 292 292 295 293 291 292 292 290 291 297 300 299 299 298 299 299 294 293 293 293 293 293 293 293 294
286 292 293 288 280 285 282 285 284 282 278 282 283 283 282 283 285 285 282 287 288 289 288 287 286 285 284 285 284 286 289 290 290 291 292 294 294 293 293 292 292 290 288 289 289 286 286 285 284 284 282 283 286 286 286 286 285 283 286 290 292 293 294 294 295 296 295 295 291 288 290 296 298 298 296 297 299 299 299 300 297 295 295 295 295 295 295 295
Wind_Speed
20 19 17 16 16 16 16 16 17 17 16 15 14 14 15 16 17 15 15 16 15 11 13 14 12 12 13 14 15 14 15 9 9 8 10 10 5 7 3 7 11 7 6 6 8 9 10 10 10 7 5 3 3 3 2 2 2 1 2 2 4 4 6 3 5 2 3 3 4 3 1 2 4 1 1 0 1 1 4 3 5 9 7 6 7 10 11 11
20 20 19 17 16 15 15 16 17 18 16 15 15 14 16 17 17 17 16 16 17 13 13 13 14 13 14 14 15 15 12 8 10 11 17 10 8 8 5 2 5 11 3 6 12 10 9 12 11 7 5 4 3 2 8 2 2 3 2 3 7 6 5 6 5 6 2 3 6 4 1 1 4 3 1 1 3 4 4 3 6 6 7 4 7 11 11 12
20 21 19 18 16 14 15 15 17 18 16 14 13 14 16 16 17 17 17 16 17 14 14 14 14 14 13 15 15 15 9 7 7 16 13 13 9 8 6 5 4 3 6 8 9 11 11 7 8 7 5 4 5 4 4 3 4 5 3 6 8 4 4 3 3 3 5 1 4 4 2 1 3 0 2 1 2 6 6 5 5 6 8 9 9 10 11 11
20 21 20 19 17 15 15 15 16 17 16 13 15 11 11 14 16 18 18 17 17 15 15 15 15 15 15 15 16 12 5 3 12 6 10 20 13 10 6 7 4 3 5 7 6 9 10 7 7 8 5 7 4 5 6 3 4 4 6 7 6 6 9 4 1 2 3 3 2 2 3 1 3 1 2 2 3 4 5 6 7 9 11 11 12 11 11 11
20 20 20 19 17 14 15 15 15 17 16 14 12 12 14 14 15 17 18 18 16 15 15 16 17 16 16 15 17 9 7 2 5 12 13 22 17 11 7 8 3 1 4 6 7 10 9 10 8 7 5 6 5 6 6 6 6 1 9 9 5 4 4 1 3 5 3 4 2 1 1 1 4 1 3 3 3 2 2 1 2 6 15 15 14 13 10 11
20 20 20 20 18 15 15 15 16 18 18 16 11 11 12 14 13 15 18 18 16 16 16 17 17 17 17 16 12 9 9 11 3 6 22 23 21 14 11 7 1 0 3 5 6 9 9 9 11 8 7 6 8 8 6 8 9 7 7 9 8 8 3 2 3 1 1 2 2 2 1 2 1 2 4 4 6 2 5 4 6 9 10 15 14 13 11 11
20 19 20 19 18 15 14 15 17 20 20 17 14 12 12 14 15 16 17 19 18 18 16 17 18 18 17 16 10 11 14 6 4 6 23 27 23 18 12 6 3 1 1 5 6 5 10 9 9 7 7 8 8 8 7 8 10 9 7 6 8 7 9 3 2 2 1 3 2 1 2 1 2 4 3 6 5 9 1 5 7 7 9 10 11 12 13 14
19 19 19 18 16 14 13 15 16 18 20 19 15 13 13 15 15 16 16 19 20 19 17 18 19 19 19 11 9 10 11 11 4 3 19 23 22 16 11 5 5 3 4 4 8 7 7 11 11 6 8 9 6 9 8 8 10 11 10 7 5 10 8 4 4 2 1 2 1 2 2 4 3 3 3 5 4 5 2 5 4 5 9 8 10 11 10 11
20 19 19 18 16 14 13 15 16 18 17 17 17 14 13 12 11 12 13 19 19 19 19 18 19 19 19 11 10 7 16 8 7 5 13 18 17 14 11 7 5 6 4 2 5 4 7 9 8 8 5 9 6 12 9 7 8 10 10 6 8 5 2 6 4 3 3 1 1 0 5 4 5 4 5 5 5 4 4 4 5 5 6 9 9 10 10 10
20 20 20 18 16 14 14 16 17 17 18 18 17 14 15 14 13 11 11 19 21 19 22 20 20 22 16 9 8 12 4 13 5 3 14 18 14 13 10 8 9 8 6 2 5 5 7 4 8 5 4 4 6 8 6 11 2 4 4 8 9 7 5 4 6 6 4 3 3 4 5 5 4 6 6 6 9 9 6 4 6 7 8 8 7 9 10 10
21 20 19 17 15 14 15 17 17 17 18 18 17 15 15 15 13 10 12 13 19 20 22 23 22 21 14 11 12 12 6 16 7 3 14 15 15 12 11 10 10 8 9 7 3 4 8 9 3 2 2 4 4 3 3 2 2 1 6 3 11 12 7 7 6 5 4 5 5 4 6 4 4 3 11 5 1 1 7 10 8 8 7 8 9 9 8 10
20 20 19 18 15 14 17 18 17 18 18 18 17 15 15 15 13 12 10 8 15 17 22 23 25 10 9 12 13 7 7 6 7 6 11 16 14 14 11 10 9 9 12 14 5 3 6 5 8 7 3 2 4 2 5 1 0 1 1 5 5 9 12 5 5 6 5 4 5 6 6 7 7 14 15 8 7 6 4 4 7 8 7 6 7 8 6 9
22 21 19 15 15 15 17 19 20 20 20 19 16 15 14 15 14 10 10 9 9 14 20 23 20 11 11 13 13 5 8 8 9 12 11 11 10 11 10 9 9 9 7 7 6 6 8 8 10 2 6 3 4 3 2 5 1 3 3 4 6 6 9 7 6 7 7 6 6 6 5 6 13 17 15 9 10 10 10 10 7 5 6 6 7 7 7 7
21 22 18 15 14 14 11 17 22 22 20 19 16 17 15 16 14 11 9 10 9 4 17 25 16 13 12 6 7 9 5 7 7 11 14 12 15 12 11 9 8 7 9 5 8 6 5 6 9 4 2 5 2 2 2 1 2 6 4 4 6 4 8 8 10 10 11 7 9 8 8 9 9 12 12 12 13 15 14 14 11 9 7 8 8 7 8 10
23 20 17 16 15 11 15 18 23 21 20 20 18 18 17 17 16 13 12 12 14 8 13 22 13 11 11 5 4 11 5 6 11 10 13 17 15 14 16 14 14 10 8 9 6 7 6 6 6 3 2 2 2 0 2 2 2 4 4 8 5 8 5 8 9 13 12 6 11 8 7 13 14 11 6 7 14 14 15 12 11 11 11 9 8 9 9 9
21 17 16 18 16 15 10 13 19 20 19 21 20 18 18 18 17 14 14 14 12 12 5 15 13 8 3 9 5 10 3 13 14 13 12 14 15 15 16 14 13 12 11 6 7 5 6 4 2 1 2 4 1 3 2 2 6 7 9 1 7 6 7 7 9 7 15 6 11 15 7 4 8 12 14 9 8 13 12 12 10 13 13 12 10 9 9 9
20 17 19 18 18 16 11 8 16 20 20 20 20 18 16 18 18 15 12 12 6 6 1 2 14 10 7 1 4 17 12 8 11 12 12 12 14 14 15 14 13 14 11 10 8 9 7 8 2 1 2 3 5 6 7 9 9 8 6 7 3 8 7 11 3 11 11 11 9 12 10 12 9 6 2 4 7 10 10 10 10 10 9 10 10 9 10 10
25 23 21 19 19 18 15 14 9 13 22 19 15 16 14 18 20 18 10 8 6 3 4 4 3 10 7 3 12 16 15 13 14 14 12 10 13 16 15 14 12 14 14 13 9 11 8 6 6 7 5 7 9 10 14 15 11 7 7 6 7 6 10 10 7 6 10 13 10 9 12 14 14 12 9 3 6 8 10 9 8 9 9 9 8 7 8 9
23 23 21 20 19 17 18 16 15 16 14 17 18 16 13 8 4 4 5 4 1 3 2 2 5 6 2 12 1 14 15 13 11 14 16 14 13 15 15 13 13 17 12 12 7 11 9 4 4 6 12 13 14 14 13 2 11 11 11 10 9 9 9 11 8 3 13 10 12 12 12 15 17 15 11 8 6 9 10 9 9 9 8 8 7 7 6 9
21 19 19 20 20 18 19 22 19 15 20 13 9 8 4 5 4 1 4 3 9 4 2 9 3 6 8 7 2 2 7 14 15 15 15 13 13 16 15 13 11 10 12 11 11 13 8 9 10 16 12 10 11 15 14 9 12 11 11 10 13 12 10 7 8 3 11 8 12 13 14 13 14 12 12 11 9 9 10 11 10 8 8 8 7 8 8 9
22 19 18 17 20 19 20 21 21 21 19 12 10 8 6 8 9 8 8 5 9 9 10 12 13 11 10 8 6 5 11 15 11 16 17 13 11 15 11 13 13 11 13 13 13 8 9 8 15 14 12 16 15 14 15 12 10 11 9 10 11 11 11 7 4 3 4 4 3 10 10 14 14 12 11 9 10 13 14 13 11 10 9 8 10 11 13 9
23 19 18 17 18 17 20 20 21 21 12 6 9 7 3 9 1 4 8 5 3 5 10 12 4 12 3 2 2 2 6 9 15 18 10 19 14 17 12 14 18 16 14 11 10 11 11 20 19 13 11 11 13 14 13 14 10 10 9 9 9 10 7 6 4 5 5 2 7 5 10 12 14 15 13 12 11 10 12 11 11 13 11 10 10 12 12 10
24 20 21 20 20 19 19 20 21 19 8 7 9 5 3 4 1 6 6 2 1 1 6 7 11 15 16 2 3 5 9 8 21 20 18 15 16 15 19 15 17 12 14 14 14 12 13 16 8 14 13 13 13 14 13 12 10 9 10 10 12 7 8 7 6 8 7 7 2 5 10 10 11 11 12 9 12 13 13 11 10 9 11 13 15 12 11 12
21 22 19 20 21 22 20 17 16 10 8 10 10 6 4 2 4 5 9 3 2 4 4 4 9 9 12 6 1 2 2 5 10 21 14 16 16 13 15 18 17 15 16 17 17 12 11 1 13 15 14 14 16 15 15 12 13 11 9 9 7 8 10 6 3 4 3 4 2 7 11 12 11 13 12 11 13 12 10 9 11 10 10 11 8 9 13 15
22 22 21 20 21 23 21 19 11 9 10 9 8 7 7 4 3 3 10 2 2 4 5 1 3 4 3 2 1 3 2 7 9 7 16 19 20 15 13 12 11 13 14 17 11 10 7 10 16 18 16 15 15 17 19 15 12 12 13 12 9 8 8 9 5 6 1 4 7 4 4 11 9 19 20 17 12 15 14 15 14 14 14 12 12 16 14 12
20 22 21 19 21 19 17 8 9 9 11 9 7 7 6 3 2 3 8 3 5 5 7 8 6 6 5 4 4 5 2 6 5 6 13 16 15 13 10 12 9 14 18 17 14 6 7 12 17 18 19 16 17 15 18 15 12 11 13 14 9 9 10 8 7 3 5 5 1 9 9 11 4 6 11 13 14 15 13 17 18 17 16 14 15 14 14 15
20 21 19 18 20 26 13 6 9 8 11 7 9 9 7 2 2 1 4 1 5 8 8 6 6 3 5 6 9 5 7 4 3 5 12 17 19 8 16 11 9 6 10 6 2 9 9 15 17 17 18 19 16 16 15 18 11 11 5 12 9 10 5 2 3 5 3 2 2 2 3 9 13 11 5 4 3 11 12 14 16 14 12 13 14 14 14 14
23 20 17 21 23 21 2 5 11 10 9 10 11 10 8 5 4 2 1 3 6 11 9 5 4 4 4 7 8 9 6 6 3 5 9 14 15 16 13 19 13 18 18 15 22 8 21 16 18 21 19 15 16 10 9 16 12 3 6 14 14 8 5 2 1 2 1 3 8 6 3 3 11 1 13 13 12 7 5 6 10 11 11 14 15 14 13 14
21 21 19 19 24 19 3 0 10 12 8 14 11 11 7 6 4 4 2 4 1 4 2 9 4 6 11 10 6 5 6 3 3 3 8 8 10 3 14 18 12 16 14 17 7 2 6 14 16 16 14 13 11 13 9 16 14 4 4 7 6 4 5 1 3 1 1 1 14 9 8 7 19 5 2 7 13 14 11 9 7 7 12 14 14 14 16 15
24 25 24 22 19 2 2 1 2 2 13 12 12 11 11 9 5 5 6 6 2 2 5 4 8 11 15 11 6 8 8 3 3 3 5 9 10 7 3 11 13 14 12 9 10 4 5 8 12 11 13 11 14 13 12 14 10 4 5 6 5 3 1 4 6 2 3 8 20 9 11 9 12 8 11 8 10 8 7 8 9 10 15 14 13 15 16 14
25 27 23 21 9 6 4 6 5 3 8 12 11 14 11 5 4 5 6 6 5 4 9 8 4 12 16 16 7 8 8 6 4 4 6 7 12 8 4 9 4 10 7 8 11 6 7 8 9 7 12 9 12 11 13 8 9 7 3 5 7 5 4 5 2 2 7 15 10 11 11 10 11 3 5 8 9 15 15 13 13 14 15 14 12 13 12 9
26 27 22 12 3 0 6 7 8 6 10 13 14 12 9 5 2 9 5 4 3 4 11 9 7 11 13 13 14 11 8 4 9 5 6 4 10 13 15 14 14 12 13 15 12 10 12 14 10 10 12 16 13 10 9 10 8 9 7 9 12 4 4 6 3 9 13 13 2 2 11 8 22 17 10 11 4 7 9 10 9 7 7 9 9 9 8 7
22 19 18 6 2 4 2 7 6 7 8 10 11 8 5 3 7 3 4 3 2 4 4 6 16 15 13 13 9 11 8 11 7 10 8 11 8 13 15 16 18 16 16 18 14 16 12 9 16 12 9 14 15 14 8 9 11 14 15 14 13 9 9 10 7 2 4 2 3 4 1 9 10 10 15 18 17 10 6 6 7 8 9 8 6 5 5 6
21 21 8 3 2 1 6 5 7 10 14 10 9 8 1 5 3 8 6 2 2 1 3 5 14 13 19 9 9 11 7 7 8 7 12 3 3 6 15 15 16 12 6 12 13 13 11 15 14 16 11 13 16 16 19 13 18 16 9 14 12 10 5 8 7 11 12 4 3 3 2 8 7 3 1 12 20 20 18 17 14 17 10 9 6 4 4 4
18 10 6 5 3 2 4 4 6 7 8 8 9 7 10 7 5 9 7 1 1 2 3 7 13 15 8 5 7 12 6 3 11 7 9 10 6 2 9 18 17 15 7 13 9 6 22 11 9 24 10 20 19 12 11 6 5 10 8 5 9 12 5 9 3 5 5 2 3 4 9 1 7 4 5 3 1 4 12 17 18 22 12 6 7 7 7 6
12 6 5 3 4 5 5 3 12 12 7 7 7 7 9 8 4 5 4 6 3 3 5 11 10 8 6 4 5 14 5 3 10 8 4 8 8 6 5 8 18 23 16 15 11 13 7 16 12 17 10 20 22 16 12 14 13 11 8 14 9 3 6 1 3 1 3 3 12 3 8 15 11 16 16 12 9 7 5 10 14 15 13 10 10 10 8 7
6 5 5 5 4 2 5 4 5 9 3 5 6 9 8 6 5 3 4 9 6 7 7 9 7 7 8 7 5 9 7 6 6 7 4 6 5 9 5 7 10 19 19 12 9 6 14 3 14 19 15 9 17 16 11 17 4 9 14 8 4 3 2 4 6 2 3 6 7 9 17 15 4 13 5 21 20 13 7 8 12 15 9 10 13 10 9 7
8 5 5 6 5 4 3 4 6 7 5 4 7 8 4 6 4 3 1 5 4 3 3 4 2 6 8 8 7 10 10 10 7 7 5 8 5 8 12 4 10 16 18 14 9 9 9 2 3 6 15 9 4 7 6 8 6 9 9 10 13 7 8 5 2 13 8 10 6 6 11 11 9 14 1 2 12 14 13 11 9 9 11 13 11 8 6 7
7 7 6 6 6 4 3 3 3 6 6 7 6 9 5 6 2 4 3 4 3 6 7 4 1 5 3 7 5 9 14 10 8 6 5 3 2 5 10 8 8 11 18 17 11 7 10 6 1 3 11 6 8 12 15 11 6 5 4 11 7 2 8 12 12 4 6 8 5 12 7 11 10 11 9 9 6 12 16 15 13 15 12 12 8 7 9 9
7 4 4 6 7 4 4 4 5 4 4 7 8 6 3 7 6 5 5 4 2 4 3 4 0 4 6 5 12 7 8 8 10 4 4 1 6 1 6 9 5 8 15 19 10 6 10 9 8 6 3 9 11 11 15 17 17 8 11 11 8 6 0 5 4 9 4 5 10 6 10 7 8 8 9 13 11 10 14 15 15 14 12 10 7 6 6 8
2 3 5 5 5 5 5 6 5 7 5 3 5 4 4 4 3 4 6 4 2 6 3 1 2 1 2 6 4 5 7 8 8 7 6 2 6 3 3 6 6 9 7 15 15 5 1 7 12 6 8 11 7 9 17 22 18 16 16 16 17 15 11 15 11 4 6 3 4 7 17 9 2 3 9 11 14 15 13 14 12 10 9 7 7 5 2 3
5 4 4 8 8 7 8 8 2 5 3 7 7 5 3 6 3 5 4 4 3 1 1 0 1 3 4 3 2 4 5 7 8 6 6 7 6 3 0 4 5 4 5 7 11 9 4 0 3 12 13 13 9 6 1 7 15 15 15 13 12 9 5 8 12 9 4 11 4 7 5 17 3 1 0 7 8 10 8 7 6 6 7 5 3 3 2 3
2 2 3 10 7 9 8 5 5 5 4 5 3 5 6 3 2 2 3 4 4 2 1 2 3 1 0 3 2 2 5 1 4 7 6 8 6 9 1 5 1 5 2 2 2 7 8 3 2 1 3 2 4 0 2 1 9 8 9 4 11 13 13 9 8 6 9 5 10 7 13 15 4 1 2 4 3 2 2 4 5 2 1 3 3 3 2 2
5 5 4 3 7 6 8 7 9 8 7 5 6 6 5 3 2 3 3 3 4 4 3 2 3 1 1 3 2 4 4 2 2 4 1 2 2 5 8 5 6 4 4 2 4 2 9 3 6 6 3 3 1 2 2 3 1 9 11 10 11 12 17 12 5 3 9 13 15 10 18 15 3 7 1 4 2 1 1 0 2 3 3 3 2 3 4 4
6 3 3 2 4 1 8 5 6 7 8 6 6 7 4 4 3 4 4 4 3 3 3 4 1 3 1 1 2 3 2 4 2 3 2 6 4 2 7 9 6 6 6 5 4 6 6 2 10 10 13 13 12 14 15 11 14 7 11 19 20 22 23 15 16 11 15 15 18 14 14 14 2 1 3 3 2 1 2 3 3 4 5 4 3 2 3 4
3 6 4 3 2 3 5 5 4 3 5 5 5 5 6 6 4 6 3 5 4 4 4 1 5 1 1 3 2 2 1 2 1 1 2 2 3 1 1 7 9 8 8 8 10 2 2 3 4 4 11 15 13 9 8 16 10 10 6 15 19 20 22 20 12 14 19 10 15 14 15 14 12 6 5 4 4 4 4 4 4 5 5 4 4 4 4 4
2 2 6 5 3 3 6 5 2 3 6 9 5 5 8 10 6 4 6 2 2 4 2 3 1 5 3 2 2 2 4 1 1 3 2 2 2 2 3 5 3 7 10 9 7 2 1 3 4 6 13 11 10 5 0 10 17 14 17 22 21 20 17 17 15 18 12 12 18 5 12 13 23 18 16 10 7 5 6 6 7 5 5 6 6 3 3 3
2 3 5 8 6 9 11 9 9 7 7 9 7 5 8 9 8 6 5 7 3 4 2 3 5 4 3 7 4 3 5 4 4 3 4 3 2 0 0 2 3 5 5 1 3 7 3 7 4 6 11 14 13 14 1 6 13 19 23 23 25 23 20 22 22 20 18 17 19 20 22 23 25 26 22 18 12 7 5 6 8 9 5 4 3 2 3 4
2 2 3 8 2 6 12 13 14 9 8 9 6 8 7 10 11 9 4 6 6 4 8 5 9 9 8 4 7 5 8 5 6 5 5 3 6 3 2 1 5 6 3 2 2 0 2 7 3 6 9 10 14 13 11 10 12 13 17 19 22 23 25 23 22 23 21 17 17 19 17 23 25 28 19 12 6 6 6 3 2 5 6 6 5 4 5 5
2 3 3 6 3 4 10 7 8 11 9 11 7 9 7 9 12 11 8 5 5 8 7 10 8 11 11 10 7 8 9 11 9 10 9 9 4 6 4 6 2 3 6 6 4 2 4 2 8 4 4 11 13 11 10 13 12 16 17 20 21 21 21 23 21 20 19 19 18 18 22 24 23 23 17 8 6 3 1 4 5 7 6 6 6 7 7 6
0 2 1 5 5 3 5 9 9 11 9 8 9 8 8 11 12 11 10 7 7 5 7 13 11 8 8 10 10 9 6 6 8 10 5 12 10 8 8 3 8 3 4 3 4 1 5 4 2 2 5 11 7 11 12 12 14 17 20 22 22 21 21 20 20 20 19 22 25 26 22 20 23 25 14 6 6 11 13 7 6 6 6 6 8 9 8 8
3 1 1 1 5 7 6 8 8 9 9 8 9 10 8 13 10 9 7 6 7 5 3 8 6 4 4 6 9 11 11 10 10 8 9 6 7 5 8 3 9 7 5 6 4 6 6 1 2 3 6 10 4 10 12 14 13 15 18 21 23 24 23 23 24 24 25 22 19 19 22 27 31 11 3 12 16 14 11 12 10 8 8 10 11 10 9 8
Wind_Direction
248 245 238 236 238 243 247 251 249 240 232 224 222 221 231 232 227 223 221 216 207 196 192 183 174 174 165 152 147 143 146 158 151 170 191 223 325 346 358 340 162 168 188 186 188 174 194 202 207 199 204 140 202 194 148 204 137 120 184 199 236 227 237 250 255 246 54 125 150 166 200 278 131 176 95 50 150 329 123 174 81 67 68 108 114 121 124 129
248 245 240 235 233 238 242 245 248 243 234 225 223 216 231 232 228 224 218 217 211 192 190 181 174 171 164 153 150 153 163 172 182 186 204 156 218 314 328 356 253 164 181 200 193 186 189 199 200 183 198 186 119 207 146 176 173 174 196 191 232 217 247 279 347 328 72 66 94 100 25 5 69 165 130 192 179 190 140 204 133 124 113 113 126 128 137 144
248 245 239 234 231 233 239 240 240 243 237 227 217 211 215 237 231 225 217 213 213 194 183 184 174 170 161 153 154 163 175 193 218 222 210 188 168 237 306 298 271 150 195 187 202 194 198 188 199 174 205 215 154 182 186 175 178 219 215 212 231 239 248 59 349 3 53 27 127 122 71 330 107 57 122 241 216 175 206 181 179 176 151 154 142 151 146 159
246 245 239 235 231 229 236 238 235 234 232 222 223 211 209 226 235 225 220 210 209 196 180 177 170 164 166 161 152 173 199 192 237 211 193 190 188 197 249 299 286 276 256 298 239 202 203 207 205 182 195 224 173 191 170 183 173 170 227 228 227 203 247 225 94 275 72 357 357 72 94 333 168 157 151 170 284 202 212 216 189 198 162 159 158 156 159 166
243 243 240 236 233 228 233 236 231 226 228 226 214 214 214 220 233 227 219 214 203 199 179 175 168 165 164 164 166 168 158 252 252 183 185 178 190 190 187 251 257 279 260 279 280 206 212 205 202 188 222 200 221 187 212 188 190 223 219 233 257 241 220 262 151 46 91 45 9 109 158 257 84 75 187 246 228 241 204 255 261 204 163 157 164 164 166 173
240 239 240 236 232 228 230 231 222 217 218 222 214 212 211 220 225 233 217 213 207 197 183 174 166 165 163 165 173 191 169 216 138 187 163 174 180 179 181 220 88 116 309 276 248 197 206 210 200 189 208 216 208 209 197 226 162 238 231 231 228 249 232 229 88 9 71 152 213 237 272 110 182 215 192 221 231 191 118 91 59 26 150 165 158 153 171 176
237 237 238 236 232 229 228 226 218 216 216 215 209 215 210 211 209 231 223 208 204 195 184 172 166 163 163 160 194 199 205 253 111 124 170 167 179 175 168 162 101 132 227 258 216 190 202 198 191 192 206 210 217 212 205 213 194 214 236 215 221 240 242 100 82 100 229 218 211 3 66 297 177 241 185 211 218 257 300 105 83 77 100 128 149 167 176 183
232 232 234 234 229 225 225 221 219 215 214 216 212 205 212 211 214 218 222 213 203 191 181 173 166 164 151 168 168 214 217 223 90 205 170 171 171 166 148 142 137 139 135 233 187 193 188 195 186 184 218 205 190 219 198 221 217 214 230 246 247 210 216 128 119 191 163 239 358 69 284 234 241 267 325 254 232 220 250 101 117 115 130 154 160 176 186 187
228 227 228 229 227 222 219 216 216 214 212 210 214 202 207 209 208 215 206 217 205 190 175 168 163 157 163 166 190 179 224 198 48 116 165 169 169 153 157 140 154 143 153 353 322 226 188 200 203 200 203 214 214 223 205 213 231 218 220 224 253 286 166 125 149 190 193 232 163 15 245 252 258 321 265 249 255 252 246 148 145 144 157 170 177 183 185 193
227 223 224 225 225 221 216 213 210 207 207 206 207 198 206 207 198 207 204 211 211 187 173 169 158 161 167 181 187 217 205 200 280 128 170 169 159 152 173 133 141 135 137 187 351 308 212 185 205 204 286 267 225 231 209 207 242 27 237 230 245 235 196 171 188 201 197 223 172 220 242 245 238 210 249 201 223 237 244 207 166 165 178 186 188 186 191 193
226 224 223 223 224 221 217 210 202 196 199 204 199 195 205 206 200 181 202 215 209 192 176 167 163 159 180 189 192 215 105 185 215 147 159 164 153 162 166 143 143 144 152 153 199 348 339 320 284 47 40 247 57 255 262 228 273 63 351 283 230 243 220 183 191 221 193 219 210 225 252 258 258 159 239 211 196 304 227 225 198 182 189 195 196 196 189 192
220 217 217 217 216 223 223 207 195 191 193 198 192 192 196 202 198 189 179 207 208 207 180 166 163 166 178 193 208 198 182 165 187 146 160 162 167 175 164 153 157 134 145 159 126 55 18 3 333 160 200 75 169 10 251 35 120 170 76 273 244 224 245 201 194 203 214 236 170 201 262 251 230 237 234 220 243 251 275 259 225 192 193 203 203 203 194 192
214 210 209 208 208 212 220 221 202 187 184 187 186 181 181 187 188 181 153 174 216 214 183 167 164 179 168 205 213 163 203 156 188 144 159 174 160 169 168 156 159 146 140 128 123 72 39 21 15 152 360 208 178 208 294 346 293 292 240 254 275 246 241 214 218 227 210 217 177 124 260 218 232 238 240 212 213 227 237 236 234 225 189 203 207 202 201 194
207 203 195 197 204 205 201 217 212 191 179 177 175 170 165 164 163 160 139 86 66 326 196 164 168 181 185 228 166 196 207 199 151 156 160 166 164 168 160 156 160 162 165 135 107 97 55 24 41 17 272 17 82 301 293 60 244 223 236 221 231 238 237 206 206 203 218 186 182 148 241 257 249 238 227 217 204 213 224 230 227 225 201 199 205 203 200 199
201 193 187 191 193 185 192 208 210 197 178 173 167 162 151 142 136 129 108 83 56 41 208 165 172 161 200 214 48 183 202 232 178 171 159 167 167 162 177 157 172 169 155 124 110 117 101 54 22 17 357 319 269 8 225 165 210 228 205 223 207 227 229 250 207 190 209 196 180 150 242 250 252 259 259 212 204 206 221 225 225 224 227 217 198 205 204 201
202 187 184 186 181 189 197 202 206 196 188 174 157 156 141 128 121 114 98 80 56 45 184 174 172 187 129 198 192 89 151 192 186 163 162 170 165 170 170 164 161 170 131 107 106 104 109 110 167 186 57 359 16 195 177 166 222 210 217 141 196 202 241 256 235 216 201 197 183 175 221 218 247 235 234 226 186 199 211 225 221 222 224 226 222 207 207 203
208 192 189 181 178 184 174 200 208 200 186 166 146 141 134 122 111 105 93 80 54 63 350 276 171 176 201 283 103 175 170 195 168 180 165 177 167 162 165 159 168 165 119 121 127 123 137 151 167 55 223 223 182 166 198 216 207 202 194 229 197 198 199 243 204 231 186 205 194 200 229 243 259 285 37 211 201 185 213 220 220 223 224 224 226 215 202 203
196 188 181 176 176 174 164 176 206 195 189 164 145 145 138 122 114 93 70 78 89 87 315 169 248 144 232 147 178 180 165 179 186 173 176 182 164 161 167 164 161 154 124 134 146 157 168 156 167 190 157 195 182 186 195 207 189 168 174 203 229 230 217 230 209 187 182 193 212 200 230 250 254 246 249 192 165 187 213 218 226 228 231 233 232 228 203 201
191 185 173 169 172 175 169 171 188 183 190 172 155 142 126 100 70 61 103 115 62 284 211 222 212 223 112 169 182 165 178 168 167 167 174 181 174 173 170 154 134 131 156 151 180 169 172 104 179 189 195 193 195 192 199 130 166 182 173 194 208 219 216 229 227 203 177 199 215 203 216 235 245 248 243 230 198 204 214 222 224 225 228 233 232 235 221 203
193 182 172 168 168 173 172 166 171 172 159 143 136 125 107 142 148 132 34 279 234 225 246 275 14 339 329 87 91 114 141 173 174 178 165 178 170 181 177 151 131 169 151 183 158 200 156 173 190 202 197 179 191 191 188 199 183 189 189 191 210 218 235 227 230 161 178 208 214 218 229 234 241 239 239 233 227 215 218 219 219 223 225 229 236 240 240 215
186 177 166 162 162 169 170 163 158 155 159 145 146 141 178 155 141 207 168 225 242 229 230 244 269 292 282 313 319 306 177 187 186 172 175 151 158 151 169 159 154 186 189 170 151 136 177 202 214 209 179 177 189 194 197 210 202 195 191 202 216 219 234 220 215 151 212 203 233 221 241 247 251 247 238 234 221 223 219 216 216 221 223 225 230 237 240 240
178 174 162 158 156 159 173 167 161 160 148 154 158 172 162 172 164 115 128 198 211 193 212 239 255 279 260 48 330 101 341 185 188 179 164 165 168 167 172 178 173 189 178 154 132 160 198 209 210 188 172 178 184 195 204 210 203 199 207 209 227 225 234 255 131 177 138 159 260 261 245 243 241 245 239 234 232 231 231 223 206 211 218 222 224 230 234 237
173 167 163 159 161 163 171 168 163 153 134 164 174 217 132 124 41 76 92 68 97 145 197 180 210 239 258 247 70 354 354 238 185 181 170 168 164 184 156 182 181 179 174 167 172 158 201 225 181 168 177 176 182 190 196 213 233 218 207 210 215 202 192 212 184 171 184 164 215 211 252 261 266 260 256 234 225 229 233 233 230 208 208 211 218 216 224 227
170 167 162 158 158 165 170 170 156 155 166 177 179 185 123 92 121 141 90 139 236 264 226 176 214 228 247 223 185 8 254 283 208 184 167 171 167 151 169 175 175 181 185 182 185 193 208 118 155 165 177 181 180 184 193 201 218 227 224 219 215 196 214 219 153 195 156 230 274 300 285 267 243 257 255 243 236 242 236 234 233 234 229 227 222 220 217 221
169 167 165 161 165 164 168 156 169 182 184 190 193 127 155 105 73 182 106 91 241 266 166 175 144 255 206 59 206 202 299 286 283 202 178 172 163 155 190 167 175 193 174 183 190 197 219 152 152 177 173 183 181 187 197 193 212 216 227 227 217 209 216 214 126 162 204 261 196 155 321 264 200 224 235 236 230 227 225 230 228 229 230 228 228 228 226 226
169 166 166 165 163 154 138 168 194 175 189 196 152 146 133 108 54 179 96 109 261 172 135 219 133 251 115 201 107 178 133 273 210 257 190 184 170 163 139 194 181 178 172 176 193 217 190 161 164 173 177 184 192 195 193 187 204 209 212 217 234 225 216 198 142 153 229 234 223 162 210 276 134 233 223 232 234 229 215 220 227 227 228 227 229 230 227 225
171 166 161 166 159 138 154 190 171 169 180 184 134 141 128 112 91 148 167 2 289 160 161 153 149 218 154 163 137 122 259 263 154 212 225 181 183 173 172 168 173 192 163 148 189 212 164 178 173 172 179 186 194 203 191 189 199 226 157 191 224 249 236 235 186 182 249 40 52 255 216 280 278 237 277 287 252 226 210 213 221 223 225 228 231 231 228 226
165 164 160 158 154 163 91 152 165 178 192 136 133 135 135 139 116 26 175 187 258 116 172 146 222 166 144 129 152 169 226 340 156 233 205 196 172 181 199 179 178 174 174 165 211 130 183 174 180 177 184 188 201 195 172 188 201 210 154 167 204 220 256 197 217 227 84 64 261 196 213 304 256 201 193 223 257 260 245 203 208 211 216 228 231 233 232 227
158 169 164 161 161 171 352 210 170 183 154 130 134 135 129 130 162 150 174 207 153 91 212 138 135 119 124 142 160 191 263 84 309 22 188 217 211 123 196 186 174 174 183 188 179 107 179 185 185 179 177 193 185 186 181 184 209 215 139 170 164 195 240 222 207 168 30 82 251 198 171 226 270 207 203 205 222 224 225 230 229 207 216 224 227 228 229 230
167 170 162 170 163 119 317 75 270 143 132 137 133 127 125 126 129 179 202 244 102 331 158 184 166 168 134 151 180 209 214 245 177 319 208 195 184 342 303 160 170 167 178 195 202 148 177 189 177 179 190 188 188 188 193 192 199 126 147 133 162 163 67 37 34 67 52 250 248 192 193 188 282 250 209 194 215 207 220 236 232 233 238 234 227 224 227 228
171 164 164 168 160 169 108 145 193 238 141 135 133 134 136 147 172 165 212 231 76 199 123 154 133 157 146 151 183 199 223 224 255 236 285 196 191 192 165 160 173 162 173 189 207 181 169 173 186 194 184 191 174 186 200 196 179 148 162 143 86 6 55 32 14 55 206 246 253 163 204 179 232 292 175 196 203 192 200 215 218 220 233 236 232 233 231 217
164 161 152 154 133 159 165 169 167 178 156 141 145 146 151 151 251 197 209 69 46 201 158 124 175 147 169 176 198 154 180 166 216 194 217 287 177 186 187 175 163 160 187 181 200 180 199 192 176 190 197 184 180 182 186 181 179 174 144 150 166 181 142 215 135 207 206 231 355 168 165 208 229 240 331 306 336 179 203 216 221 230 249 251 231 213 207 202
146 135 133 114 78 123 308 138 157 140 131 168 144 148 157 161 205 186 241 48 260 90 235 152 149 164 154 161 194 171 187 222 143 206 199 248 293 212 196 191 180 186 182 175 179 186 210 197 184 185 180 201 180 181 160 190 190 186 174 175 179 175 185 207 191 273 275 249 241 102 170 265 277 287 227 245 260 261 258 253 258 246 247 255 232 215 210 208
138 140 139 115 101 198 156 187 137 150 157 185 145 146 236 192 217 167 228 157 234 84 185 133 155 138 160 163 175 160 181 231 176 197 189 249 181 251 208 208 184 193 69 169 197 172 173 207 208 163 208 166 201 191 183 186 180 195 170 182 193 184 182 184 182 202 210 234 171 216 82 223 181 237 159 222 222 232 239 245 248 248 229 234 249 256 236 233
132 129 111 128 170 102 164 136 112 72 120 177 147 166 171 194 203 174 215 141 355 309 123 172 137 152 173 187 154 164 166 187 193 196 191 201 214 180 220 199 198 188 168 168 194 168 207 225 154 189 172 176 198 192 183 141 180 200 184 155 204 208 117 211 191 210 209 180 198 196 216 259 208 333 316 318 18 249 226 235 240 251 241 238 252 248 239 234
134 147 130 145 136 160 150 125 126 128 144 160 142 170 193 186 189 154 203 127 169 156 163 145 155 141 174 153 151 178 209 128 176 186 209 202 223 219 251 235 196 193 183 198 147 200 171 222 151 182 197 186 189 185 190 156 196 179 176 206 195 23 217 210 18 340 62 37 253 182 270 261 290 277 260 271 269 257 238 233 239 246 241 235 239 241 239 231
125 131 135 123 109 140 128 141 147 132 132 153 159 186 206 205 232 135 179 177 150 169 166 153 201 151 169 176 156 170 173 82 181 158 206 137 259 203 219 262 263 200 206 181 192 204 185 209 170 174 198 208 191 190 173 187 161 155 206 189 89 45 74 181 213 156 186 223 251 182 229 253 155 278 215 210 221 230 234 236 233 237 234 234 236 236 232 225
131 124 114 135 136 130 128 139 154 131 121 166 185 208 203 234 210 286 126 168 147 175 177 187 154 188 170 161 172 155 167 166 161 150 178 156 263 171 195 211 252 232 198 213 201 183 170 174 316 213 179 180 141 157 220 218 345 215 199 136 165 188 209 195 169 223 197 220 244 232 225 244 192 239 5 176 218 214 225 236 246 253 242 243 242 232 226 218
120 125 131 157 132 135 95 147 149 122 128 173 210 217 203 231 223 240 257 226 169 163 198 247 101 225 172 181 139 158 161 178 153 175 153 192 208 167 190 180 231 232 214 204 209 164 191 182 93 239 187 142 146 162 196 190 244 307 135 175 210 317 212 177 201 237 202 233 227 254 198 250 206 239 223 249 201 207 211 221 227 234 233 238 238 212 216 219
138 124 136 152 140 117 105 100 100 88 160 198 196 230 194 209 227 247 259 241 212 214 204 207 175 152 213 194 155 141 189 167 155 167 184 145 189 267 196 187 212 210 222 216 216 182 195 184 209 174 280 155 199 189 190 178 184 198 182 187 181 214 247 204 208 210 178 210 229 284 270 239 244 193 204 212 215 206 207 212 221 230 238 243 245 227 216 213
150 114 117 146 135 111 115 104 124 175 193 233 246 242 221 226 181 241 257 271 314 48 15 341 94 127 174 178 190 157 162 165 157 164 166 183 179 232 219 193 195 220 214 226 221 196 193 196 193 142 204 219 196 182 194 190 187 190 187 194 189 176 171 186 217 191 220 186 218 214 251 264 227 164 204 207 212 215 203 206 215 221 224 221 227 223 172 150
146 121 162 162 141 140 126 134 196 186 208 205 205 204 226 234 272 199 226 216 264 316 150 15 110 159 171 272 142 130 150 162 174 165 190 175 217 211 228 207 222 220 207 225 211 200 158 110 165 181 199 196 200 196 230 204 190 199 191 198 185 188 171 196 203 196 196 228 246 251 306 259 141 349 148 198 208 212 208 185 196 204 212 210 160 140 136 145
137 75 69 148 147 159 139 162 171 185 212 227 248 262 288 289 251 326 250 195 225 167 282 130 213 77 124 171 73 100 151 158 198 179 153 203 205 191 179 122 278 278 289 295 260 226 70 176 130 188 103 28 37 153 98 28 179 200 228 217 179 194 191 199 205 187 208 195 222 240 247 264 250 346 35 55 55 89 85 170 195 193 99 114 146 163 183 223
107 113 108 191 165 166 158 175 182 197 211 217 218 238 208 277 233 213 262 222 198 170 212 188 249 177 211 127 128 148 214 106 159 125 16 177 249 195 206 190 160 238 184 297 235 136 199 217 139 152 113 122 55 15 277 357 271 204 184 209 205 190 194 201 208 197 222 205 217 199 239 247 256 142 179 122 148 100 149 226 136 205 232 217 209 196 190 204
98 58 71 83 18 258 180 201 192 190 202 202 195 215 205 225 268 263 223 250 236 249 186 228 185 167 202 73 127 130 174 172 133 203 195 179 220 198 188 197 185 227 209 256 280 353 275 164 158 182 166 178 191 194 191 183 203 191 200 193 201 196 192 181 208 191 225 211 208 216 237 240 279 110 216 221 249 262 259 212 207 197 204 214 210 212 208 197
167 131 166 59 51 188 297 354 345 220 194 189 202 213 215 229 204 249 304 283 285 250 262 262 192 192 234 162 79 58 68 318 107 204 142 228 220 11 201 192 193 208 235 227 234 156 256 335 292 228 203 208 211 212 208 180 159 189 180 198 202 205 199 201 198 207 218 207 227 218 234 263 256 247 228 199 166 196 219 222 202 213 236 233 224 229 231 230
132 135 144 162 77 225 212 223 245 239 211 182 206 182 205 216 212 206 182 255 266 277 241 261 206 181 192 173 183 156 177 171 311 267 180 193 207 190 166 122 184 230 210 225 219 222 119 253 208 283 282 284 311 330 39 168 168 183 181 201 201 207 205 205 204 219 204 222 243 211 241 245 254 246 240 227 222 211 217 209 214 215 214 210 208 210 245 282
152 188 156 175 156 172 195 215 217 215 237 201 216 167 205 203 206 215 155 216 227 212 244 194 269 246 205 182 177 194 163 177 172 207 215 219 153 255 345 239 210 115 113 188 155 198 176 252 189 168 258 285 282 287 278 200 208 194 195 190 194 196 196 201 211 217 207 216 225 218 218 229 242 242 233 233 233 238 223 226 213 198 181 171 149 194 246 252
348 93 147 147 180 162 193 195 192 203 218 218 220 201 197 198 206 212 211 176 207 210 198 207 203 215 232 204 192 186 171 167 204 204 188 184 189 155 221 252 236 176 154 186 102 93 114 241 181 175 230 242 262 263 272 218 213 217 206 203 200 195 201 202 210 215 215 224 231 238 238 236 243 251 241 236 223 221 231 215 146 157 176 176 180 211 221 241
189 149 168 167 216 151 192 191 178 191 216 215 225 207 212 202 210 206 225 199 182 217 190 223 207 202 213 221 215 214 199 204 187 204 187 187 194 186 209 203 165 197 169 206 140 207 180 275 136 155 217 247 235 239 247 252 232 219 212 207 202 200 204 207 212 217 219 234 239 244 245 246 245 248 251 235 224 233 99 166 193 209 197 186 192 211 221 226
28 39 354 154 181 201 167 184 183 192 209 208 218 217 216 210 214 208 216 209 212 192 196 214 213 218 209 217 228 234 236 227 224 230 198 181 214 184 191 245 182 144 178 147 95 101 168 291 72 163 203 256 218 209 217 234 251 238 216 210 206 199 204 207 215 213 211 215 221 233 242 249 254 243 240 238 226 223 231 210 208 219 211 201 210 225 224 222
40 30 303 182 186 180 183 176 199 186 210 207 207 212 215 211 217 199 228 212 234 252 221 220 229 233 245 230 225 232 235 237 242 243 242 217 222 225 203 206 168 155 169 175 154 147 168 190 221 174 231 251 218 182 204 221 234 244 227 208 204 208 207 208 215 214 218 212 219 221 232 234 239 244 219 237 228 228 231 226 219 213 209 205 212 220 226 227